Gulkana, AK

11:41 PM AKDT on May 26, 2017 (GMT -0800)
Gulkana

Weather History for PAGK - October, 2011

Change the Weather History Date:

Wednesday, October 19, 2011

  Actual Average Record
Temperature  
Mean Temperature 32 °F -  
Max Temperature 39 °F 31 °F 53 °F (2002)
Min Temperature 23 °F 17 °F -19 °F (1959)
Degree Days  
Heating Degree Days 32    
Moisture  
Dew Point 25 °F    
Average Humidity 82    
Maximum Humidity 96    
Minimum Humidity 50    
Precipitation  
Precipitation 0.00 in - - ()
Sea Level Pressure  
Sea Level Pressure 29.72 in    
Wind  
Wind Speed 2 mph (South)    
Max Wind Speed 14 mph    
Max Gust Speed 20 mph    
Visibility 10 miles    
Events Snow    
Averages and records for this station are not official NWS values.
T = Trace of Precipitation, MM = Missing Value Source: NWS Daily Summary

Daily Weather History Graph

Daily Weather History Graph

Search for Another Location

Airport or City:

Trip Planner

Search our weather history database for the weather conditions in past years. The results will help you decide how hot, cold, wet, or windy it might be!

Date:

Astronomy

Oct. 19, 2011 Rise Set
Actual Time 8:37 AM AKDT 6:15 PM AKDT
Civil Twilight 7:51 AM AKDT 7:00 PM AKDT
Nautical Twilight 6:59 AM AKDT 7:52 PM AKDT
Astronomical Twilight 6:07 AM AKDT 8:44 PM AKDT
Moon 11:27 PM AKDT (10/19) 4:03 PM AKDT (10/19)
Length of Visible Light 11h 09m
Length of Day
9h 37m
Waning Gibbous, 53% of the Moon is Illuminated
Oct 19
Waning Gibbous
Oct 19
Last Quarter
Oct 26
New
Nov 2
First Quarter
Nov 10
Full

Hourly Weather History & Observations

Time (AKDT) Temp. Windchill Dew Point Humidity Pressure Visibility Wind Dir Wind Speed Gust Speed Precip Events Conditions
12:53 AM 28.9 °F - 28.0 °F 96% 29.70 in 10.0 mi Calm Calm - N/A   Overcast
1:21 AM 28.4 °F 24.6 °F 26.6 °F 93% 29.63 in 10.0 mi SW 3.5 mph - N/A   Overcast
1:53 AM 28.0 °F - 27.0 °F 96% 29.71 in 10.0 mi Calm Calm - N/A   Overcast
2:53 AM 28.9 °F - 27.0 °F 92% 29.70 in 4.0 mi Calm Calm - 0.00 in Snow Light Snow
3:53 AM 28.0 °F - 27.0 °F 96% 29.71 in 10.0 mi Calm Calm - 0.00 in   Overcast
4:53 AM 28.0 °F - 27.0 °F 96% 29.71 in 10.0 mi Calm Calm - N/A   Overcast
5:53 AM 28.0 °F - 26.1 °F 92% 29.72 in 10.0 mi Calm Calm - N/A   Overcast
5:59 AM 28.4 °F - 26.6 °F 93% 29.64 in 10.0 mi Calm Calm - 0.00 in Snow Light Snow
6:53 AM 28.0 °F - 26.1 °F 92% 29.71 in 10.0 mi Calm Calm - 0.00 in Snow Light Snow
7:53 AM 28.0 °F - 26.1 °F 92% 29.72 in 10.0 mi Calm Calm - 0.00 in   Overcast
8:53 AM 28.0 °F - 26.1 °F 92% 29.72 in 10.0 mi Calm Calm - N/A   Overcast
9:53 AM 28.0 °F - 27.0 °F 96% 29.73 in 10.0 mi Calm Calm - N/A   Overcast
10:53 AM 28.9 °F - 27.0 °F 92% 29.74 in 10.0 mi Calm Calm - 0.00 in Snow Light Snow
11:33 AM 30.2 °F - 26.6 °F 86% 29.66 in 10.0 mi Calm Calm - 0.00 in   Overcast
11:53 AM 30.2 °F - 26.6 °F 86% 29.67 in 10.0 mi Calm Calm - N/A   Overcast
12:53 PM 32.0 °F 26.4 °F 28.0 °F 85% 29.75 in 10.0 mi South 5.8 mph - N/A   Overcast
1:19 PM 33.8 °F 27.0 °F 28.4 °F 81% 29.67 in 10.0 mi SSE 8.1 mph - N/A   Mostly Cloudy
1:53 PM 34.0 °F 31.0 °F 28.0 °F 79% 29.74 in 10.0 mi Variable 3.5 mph - N/A   Scattered Clouds
2:53 PM 37.0 °F 33.3 °F 28.0 °F 70% 29.73 in 10.0 mi South 4.6 mph - N/A   Scattered Clouds
3:53 PM 39.0 °F 31.0 °F 23.0 °F 53% 29.73 in 10.0 mi SSE 13.8 mph - N/A   Scattered Clouds
4:53 PM 37.0 °F 28.9 °F 19.9 °F 50% 29.73 in 10.0 mi SSE 12.7 mph 19.6 mph N/A   Mostly Cloudy
5:53 PM 36.0 °F 30.3 °F 21.0 °F 55% 29.73 in 10.0 mi SSE 6.9 mph - N/A   Mostly Cloudy
6:53 PM 34.0 °F 28.8 °F 21.0 °F 59% 29.74 in 10.0 mi South 5.8 mph - N/A   Mostly Cloudy
7:53 PM 32.0 °F 26.4 °F 21.0 °F 64% 29.75 in 10.0 mi South 5.8 mph - N/A   Mostly Cloudy
8:53 PM 30.0 °F 25.2 °F 21.9 °F 72% 29.76 in 10.0 mi South 4.6 mph - N/A   Scattered Clouds
9:25 PM 28.4 °F 24.6 °F 21.2 °F 74% 29.68 in 10.0 mi South 3.5 mph - N/A   Scattered Clouds
9:53 PM 26.1 °F - 21.0 °F 81% 29.78 in 10.0 mi Calm Calm - N/A   Mostly Cloudy
10:53 PM 26.1 °F 21.9 °F 19.9 °F 78% 29.78 in 10.0 mi SW 3.5 mph - N/A   Mostly Cloudy
11:53 PM 23.0 °F 17.0 °F 19.0 °F 85% 29.78 in 10.0 mi West 4.6 mph - N/A   Clear